Date String (YYYY-MM-DD hh:mm:ss) UTC,Instrument flags,Ambient pressure (hPa),Sample flow (lpm),Bypass flow (lpm),Sample temperature (°C),Ambient temperature (°C),ASC tube jacket temperature (°C),LED temperature (°C),Box temperature (°C),Sample RH (%),Span deviation,Mass concentration (μg/m³),Mass concentration (μg/m³),Mass concentration (μg/m³)
DateTimeUTC,F1_M11,P_M11,Q1_M11,Q2_M11,T1_M11,T2_M11,T3_M11,T4_M11,T5_M11,U1_M11,ZSPAN_M11,X2_M11,X0_M11,X1_M11
2023-02-12 15:00:00,,0823.7,5.02,0.00,22.1,20.2,00.0,31.1,23.7,11.9,0000.0,0006.37,0010.84,0005.84
2023-02-12 15:01:00,,0823.7,4.99,0.00,22.0,20.2,00.0,31.1,23.8,11.8,0000.0,0006.42,0010.96,0005.85
2023-02-12 15:02:00,,0823.7,4.99,0.00,22.0,20.2,00.0,31.0,23.8,11.7,0000.0,0006.45,0011.02,0005.87
2023-02-12 15:03:00,,0823.7,4.98,0.00,22.0,20.2,00.0,31.0,23.8,11.9,0000.0,0006.49,0011.19,0005.86
2023-02-12 15:04:00,,0823.7,5.00,0.00,22.0,20.3,00.0,31.0,23.8,11.8,0000.0,0006.48,0011.48,0005.87
2023-02-12 15:05:00,,0823.7,5.01,0.00,22.0,20.3,00.0,31.0,23.8,11.9,0000.0,0006.44,0011.82,0005.87
2023-02-12 15:06:00,,0823.7,5.01,0.00,22.0,20.4,00.0,31.0,23.8,12.1,0000.0,0006.43,0011.45,0005.87
2023-02-12 15:07:00,,0823.7,4.98,0.00,22.0,20.4,00.0,31.0,23.8,12.2,0000.0,0006.43,0011.54,0005.87
2023-02-12 15:08:00,,0823.7,5.03,0.00,22.0,20.6,00.0,31.0,23.9,11.9,0000.0,0006.43,0011.12,0005.87
2023-02-12 15:09:00,,0823.7,5.06,0.00,22.1,22.1,00.0,30.9,24.2,11.8,0000.0,0006.45,0010.92,0005.86
2023-02-12 15:10:00,,0823.8,5.00,0.00,22.3,23.3,00.0,30.9,24.4,11.6,0000.0,0006.44,0011.29,0005.83
2023-02-12 15:11:00,,0823.7,4.99,0.00,22.4,23.0,00.0,31.0,24.5,11.4,0000.0,0006.36,0011.27,0005.81
2023-02-12 15:12:00,,0823.7,5.02,0.00,22.4,22.5,00.0,31.1,24.4,11.4,0000.0,0006.30,0011.10,0005.79
2023-02-12 15:13:00,,0823.7,5.00,0.00,22.4,22.0,00.0,31.1,24.3,11.4,0000.0,0006.25,0010.99,0005.77
2023-02-12 15:14:00,,0823.7,4.98,0.00,22.4,21.6,00.0,31.1,24.2,11.5,0000.0,0006.17,0010.76,0005.74
2023-02-12 15:15:00,,0823.7,4.99,0.00,22.4,21.3,00.0,31.1,24.2,11.3,0000.0,0006.11,0010.35,0005.70
2023-02-12 15:16:00,,0823.7,4.98,0.00,22.3,21.1,00.0,31.1,24.1,11.5,0000.0,0006.07,0009.83,0005.67
2023-02-12 15:17:00,,0823.7,5.02,0.00,22.3,20.9,00.0,31.2,24.1,11.6,0000.0,0006.08,0009.56,0005.66
2023-02-12 15:18:00,,0823.7,4.98,0.00,22.3,20.8,00.0,31.2,24.0,11.5,0000.0,0006.08,0009.91,0005.65
2023-02-12 15:19:00,,0823.8,5.01,0.00,22.3,20.7,00.0,31.2,24.0,11.5,0000.0,0006.06,0009.89,0005.64
2023-02-12 15:20:00,,0823.8,5.04,0.00,22.3,20.7,00.0,31.2,24.0,11.5,0000.0,0006.06,0009.88,0005.65
2023-02-12 15:21:00,,0823.8,5.01,0.00,22.3,20.7,00.0,31.2,24.0,11.7,0000.0,0006.06,0009.63,0005.66
2023-02-12 15:22:00,,0823.9,5.01,0.00,22.3,20.8,00.0,31.2,24.0,11.5,0000.3,0006.08,0010.09,0005.66
2023-02-12 15:23:00,,0823.8,5.02,0.00,22.3,20.8,00.0,31.2,24.1,11.5,0000.5,0006.09,0010.12,0005.66
2023-02-12 15:24:00,,0823.8,4.96,0.00,22.3,20.8,00.0,31.1,24.1,11.6,0000.5,0006.08,0010.14,0005.65
2023-02-12 15:25:00,,0823.7,5.01,0.00,22.3,20.7,00.0,31.1,24.0,11.3,0000.8,0006.10,0010.23,0005.65
2023-02-12 15:26:00,,0823.7,4.98,0.00,22.3,20.7,00.0,31.1,24.0,11.3,0000.4,0006.11,0010.24,0005.66
2023-02-12 15:27:00,,0823.7,5.01,0.00,22.3,20.7,00.0,31.1,24.0,11.5,0000.4,0006.12,0010.32,0005.67
2023-02-12 15:28:00,,0823.8,4.96,0.00,22.2,20.6,00.0,31.1,24.0,11.4,0000.0,0006.08,0010.26,0005.65
2023-02-12 15:29:00,,0823.8,5.00,0.00,22.2,20.6,00.0,31.1,24.0,11.4,-000.2,0006.02,0009.78,0005.62
2023-02-12 15:30:00,,0823.8,5.03,0.00,22.2,20.6,00.0,31.1,24.0,11.4,0000.0,0006.01,0009.68,0005.60
2023-02-12 15:31:00,,0823.8,5.02,0.00,22.2,20.5,00.0,31.1,24.0,11.7,0000.0,0005.96,0009.77,0005.58
2023-02-12 15:32:00,,0823.8,5.01,0.00,22.2,20.5,00.0,31.1,24.0,11.6,0000.0,0005.96,0010.44,0005.56
2023-02-12 15:33:00,,0823.8,4.98,0.00,22.2,20.5,00.0,31.1,23.9,11.5,0000.0,0005.92,0009.66,0005.53
2023-02-12 15:34:00,,0823.8,4.99,0.00,22.2,20.5,00.0,31.1,23.9,11.5,0000.0,0005.90,0010.08,0005.50
2023-02-12 15:35:00,,0823.8,5.01,0.00,22.2,21.0,00.0,31.1,24.0,11.4,0000.0,0005.90,0010.33,0005.50
2023-02-12 15:36:00,,0823.8,4.97,0.00,22.3,22.6,00.0,31.0,24.4,11.3,0000.0,0005.87,0010.41,0005.46
2023-02-12 15:37:00,,0823.8,5.01,0.00,22.5,23.3,00.0,31.1,24.6,11.4,0000.0,0005.85,0010.38,0005.45
2023-02-12 15:38:00,,0823.8,4.96,0.00,22.5,22.8,00.0,31.2,24.5,11.2,0000.0,0005.83,0010.29,0005.43
2023-02-12 15:39:00,,0823.8,5.01,0.00,22.5,22.3,00.0,31.2,24.4,11.2,0000.0,0005.80,0010.21,0005.40
2023-02-12 15:40:00,,0823.8,5.00,0.00,22.5,21.9,00.0,31.2,24.4,11.3,0000.0,0005.79,0010.18,0005.40
2023-02-12 15:41:00,,0823.7,4.98,0.00,22.5,21.5,00.0,31.2,24.3,11.4,0000.0,0005.78,0010.18,0005.39
2023-02-12 15:42:00,,0823.7,5.00,0.00,22.5,21.2,00.0,31.3,24.2,11.3,0000.0,0005.77,0009.95,0005.40
2023-02-12 15:43:00,,0823.7,5.00,0.00,22.4,21.0,00.0,31.3,24.1,11.4,0000.0,0005.74,0009.38,0005.39
2023-02-12 15:44:00,,0823.8,5.01,0.00,22.4,20.9,00.0,31.3,24.1,11.7,0000.0,0005.77,0009.81,0005.42
2023-02-12 15:45:00,,0823.7,4.99,0.00,22.4,20.8,00.0,31.3,24.1,11.7,0000.0,0005.77,0009.49,0005.42
2023-02-12 15:46:00,,0823.8,5.00,0.00,22.4,20.7,00.0,31.3,24.1,11.8,0000.0,0005.77,0009.15,0005.43
2023-02-12 15:47:00,,0823.8,5.02,0.00,22.3,20.7,00.0,31.2,24.0,12.1,0000.0,0005.79,0008.95,0005.47
2023-02-12 15:48:00,,0823.9,4.98,0.00,22.3,20.7,00.0,31.2,24.1,12.0,0000.0,0005.83,0008.97,0005.51
2023-02-12 15:49:00,,0823.9,5.01,0.00,22.3,20.6,00.0,31.2,24.0,11.8,0000.0,0005.88,0009.30,0005.52
2023-02-12 15:50:00,,0823.9,5.00,0.00,22.3,20.6,00.0,31.2,24.0,11.8,0000.0,0005.92,0009.46,0005.54
2023-02-12 15:51:00,,0823.8,4.98,0.00,22.3,20.6,00.0,31.2,24.0,11.7,0000.0,0005.95,0009.52,0005.57
2023-02-12 15:52:00,,0823.8,4.99,0.00,22.3,20.6,00.0,31.2,24.0,11.7,0000.0,0005.95,0009.58,0005.57
2023-02-12 15:53:00,,0823.7,4.98,0.00,22.3,20.5,00.0,31.2,24.0,11.6,0000.0,0005.96,0009.66,0005.56
2023-02-12 15:54:00,,0823.8,4.98,0.00,22.3,20.5,00.0,31.2,24.0,11.5,0000.0,0005.96,0009.94,0005.54
2023-02-12 15:55:00,,0823.7,4.98,0.00,22.2,20.4,00.0,31.2,23.9,11.4,0000.0,0005.93,0009.43,0005.51
2023-02-12 15:56:00,,0823.7,5.01,0.00,22.2,20.3,00.0,31.2,23.8,11.6,0000.0,0005.93,0009.46,0005.50
2023-02-12 15:57:00,,0823.7,5.02,0.00,22.1,20.3,00.0,31.1,23.8,11.7,0000.0,0005.92,0009.48,0005.48
2023-02-12 15:58:00,,0823.7,5.00,0.00,22.1,20.2,00.0,31.1,23.8,11.7,0000.0,0005.89,0009.48,0005.45
2023-02-12 15:59:00,,0823.8,5.01,0.00,22.1,20.2,00.0,31.1,23.8,11.9,0000.0,0005.90,0009.57,0005.43
